Regional Weather Roundup
Issued by NWS Sterling, VA

Home | Current Version | Previous Version | Graphics & Text | Print | Product List | Glossary On
Versions: 1 2 3 4 5 6 7 8 9 10 11 12 13 14 15 16 17 18 19 20 21 22 23 24 25 26 27 28 29 30 31 32 33 34 35 36 37 38 39 40 41 42 43 44 45 46 47 48 49 50
000
ASUS41 KLWX 281911
RWRLWX

REGIONAL WEATHER ROUNDUP
NATIONAL WEATHER SERVICE BALTIMORE MD/WASHINGTON DC
300 PM EDT FRI APR 28 2017

Note: "FAIR" indicates few or no clouds below 12,000 feet
with no significant weather and/or obstructions to visibility.
 TC=TEMPERATURE CELSIUS

 * =Non NWS site. Station does not report precipitation (e.g. rain,
    snow, etc.), thunder, or fog.

DCZ001-MDZ009-015-VAZ040>042-051-053>054-282000-
WASHINGTON METRO

CITY           SKY/WX    TMP DP  RH WIND       PRES   REMARKS
WASHINGTON NAT MOSUNNY   84  58  40 SW13      30.02F
DULLES         MOSUNNY   83  57  41 VRB7      30.02F
ANDREWS AFB    SUNNY     83  57  41 S7        30.02F
FT BELVOIR     SUNNY     83  60  44 S7        30.03F
QUANTICO       SUNNY     80  63  55 S3        30.03F
COLLEGE PARK*  PTSUNNY   83  56  39 SW7       30.02S
LEESBURG*      SUNNY     86  61  42 SW8       30.03F
MANASSAS*        N/A     83  61  47 S8        30.03S

$$

MDZ006>007-011-014-282000-
BALTIMORE METRO

CITY           SKY/WX    TMP DP  RH WIND       PRES   REMARKS
BWI AIRPORT    MOSUNNY   84  56  38 CALM      30.01F
MD SCIENCE CTR   N/A     81  57  43 MISG      30.02F
MARTIN STATE   MOSUNNY   81  64  57 SE13      30.04F
ANNAPOLIS      SUNNY     77  61  57 SE13      30.03S
FORT MEADE*    SUNNY     82  55  39 S5        30.04F

$$

MDZ012-015-019>023-282000-
MARYLAND EASTERN SHORE

CITY           SKY/WX    TMP DP  RH WIND       PRES   REMARKS
OCEAN CITY     SUNNY     69  64  84 SW9       30.05S
SALISBURY      MOSUNNY   85  64  49 S10       30.02F
BAY BRIDGE AP* SUNNY     82  59  44 S9        30.04S
CAMBRIDGE*     SUNNY     82  59  44 VRB3      30.04S
EASTON*        MOSUNNY   84  55  37 W8        30.08S

$$

MDZ017>025-282000-
SOUTHERN MARYLAND

CITY           SKY/WX    TMP DP  RH WIND       PRES   REMARKS
PATUXENT RIVER MOSUNNY   77  65  66 SE8       30.04F
ST INIGOES     SUNNY     81  59  47 SE8       30.04S
LEONARDTOWN*   SUNNY     79  55  44 E7        30.06S

$$

MDZ003>005-282000-
NORTH CENTRAL MARYLAND

CITY           SKY/WX    TMP DP  RH WIND       PRES   REMARKS
FREDERICK*     SUNNY     84  63  48 W5        30.05F
HAGERSTOWN APT SUNNY     80  54  40 MISG      30.03F
WESTMINSTER*   SUNNY     82  54  36 SW8       30.04F

$$

MDZ501>502-282000-
WESTERN MARYLAND

CITY           SKY/WX    TMP DP  RH WIND       PRES   REMARKS
OAKLAND*       SUNNY     72  39  30 SW7       30.09S
CUMBERLAND*    SUNNY     81  50  34 E6        30.05R

$$

VAZ025>031-282000-
SHENANDOAH VALLEY

CITY           SKY/WX    TMP DP  RH WIND       PRES   REMARKS
WINCHESTER*    SUNNY     81  57  44 SE8       30.02F
FRONT ROYAL*   MOSUNNY   82  61  47 SE8G16    30.00F
LURAY*         SUNNY     82  52  34 S8        30.01F
NEW MARKET*    SUNNY     82  52  35 S10G16    30.00F
STAUNTON*      CLOUDY    80  60  50 S10       30.06F
WAYNESBORO*    PTSUNNY   78  62  57 S3        30.06F

$$

WVZ021-048>050-054>055-282000-
EASTERN WEST VIRGINIA PANHANDLE

CITY           SKY/WX    TMP DP  RH WIND       PRES   REMARKS
MARTINSBURG    SUNNY     81  53  37 SE7       30.01F
PETERSBURG*    SUNNY     84  57  39 CALM      29.99F

$$

VAZ036>039-050-282000-
CENTRAL FOOTHILLS

CITY           SKY/WX    TMP DP  RH WIND       PRES   REMARKS
CHARLOTTESVILL SUNNY     85  59  41 S8        30.03S
CULPEPER*      MOSUNNY   84  59  42 SW5       30.03F
ORANGE*        CLOUDY    82  61  47 SW8       30.03S
GORDONSVILLE*  MOSUNNY   83  59  44 S6        30.03R
WARRENTON*     MOSUNNY   85  54  34 SE7       30.02F

$$

VAZ055>057-282000-
NORTH AND CENTRAL PIEDMONT

CITY           SKY/WX    TMP DP  RH WIND       PRES   REMARKS
FREDERICKSBRG* MOSUNNY   85  62  46 SE8       30.02S
STAFFORD*      PTSUNNY   81  61  50 E3        30.06S

$$

NCZ024-NYZ072-PAZ021-071-VAZ022-071-282000-
OTHER REGIONAL OBSERVATIONS

CITY           SKY/WX    TMP DP  RH WIND       PRES   REMARKS
NEW YORK CITY  SUNNY     83  49  30 VRB6      29.99F
PHILADELPHIA   MOSUNNY   84  51  31 W13       30.02R
PITTSBURGH     CLOUDY    70  43  37 S5        30.03F
ROANOKE        PTSUNNY   79  61  53 SE9       30.06F
RICHMOND       MOSUNNY   84  67  56 SW8       30.03F
RALEIGH        PTSUNNY   84  69  60 SW9       30.07S

$$

ANZ530>537-282000-
MARINE OBSERVATIONS

STATION/POSITION TIME  TEMP    WIND        PRES
                       AIR SEA DIR/SP/G
                 (UTC) (F)     (DEG/KT/KT) (MB)
THOMAS PT LIGHT  1900   70 59  180/  9/ 10   N/A
BALT KEY BRIDGE  1848   72     120/ 13/ 15 1016.7F
COVE POINT       1848   72     190/ 12/ 12 1018.2S
LEWISETTA        1848   69 66  110/  7/  7 1017.3F
SOLOMONS ISLAND  1848   72 62  110/  7/  7   N/A
PINEY POINT      1848          170/  9/ 10   N/A

$$




USA.gov is the U.S. government's official web portal to all federal, state and local government web resources and services.